Location: Eisingen in Unterfranken
(49.7591°N, 9.8347°E)
Time: 07:45:50
(UTC+01:00)

Envisat - Pass Details

Date: 05 December 2022
Orbit: 763 x 765 km, 98.2° (Epoch: 04 February)

Event Time Altitude Azimuth Distance (km) Brightness Sun altitude
Rises 04:04:31 0° 19° (NNE) 3,246 6.6 -37.1°
Reaches altitude 10° 04:06:58 10° 27° (NNE) 2,315 5.8 -36.8°
Enters shadow 04:08:35 19° 36° (NE) 1,749 5.2 -36.5°
